Time,TemperatureF,DewpointF,PressureIn,WindDirection,WindDirectionDegrees,WindSpeedMPH,WindSpeedGustMPH,Humidity,HourlyPrecipIn,Conditions,Clouds,dailyrainin,SoftwareType,DateUTC
2013-09-15 00:02:00,58.3,55.1,29.95,SSE,157,0.0,-999.0,89,-99.99,,,0.00,Acu-Link.com,2013-09-15 05:02:00,
2013-09-15 00:18:00,58.3,48.6,29.94,SSE,157,0.0,-999.0,70,-99.99,,,0.00,Acu-Link.com,2013-09-15 05:18:00,
2013-09-15 00:33:00,58.1,45.6,29.94,WSW,247,0.0,-999.0,63,-99.99,,,0.00,Acu-Link.com,2013-09-15 05:33:00,
2013-09-15 00:48:00,57.0,47.7,29.94,SE,135,0.0,-999.0,71,-99.99,,,0.00,Acu-Link.com,2013-09-15 05:48:00,
2013-09-15 01:04:00,57.2,43.9,29.95,WNW,292,0.0,-999.0,61,-99.99,,,0.00,Acu-Link.com,2013-09-15 06:04:00,
2013-09-15 01:19:00,57.4,39.4,29.94,West,270,0.0,-999.0,51,-99.99,,,0.00,Acu-Link.com,2013-09-15 06:19:00,
2013-09-15 01:34:00,57.4,36.8,29.94,West,270,0.0,-999.0,46,-99.99,,,0.00,Acu-Link.com,2013-09-15 06:34:00,
2013-09-15 01:50:00,57.0,34.1,29.94,West,270,0.0,-999.0,42,-99.99,,,0.00,Acu-Link.com,2013-09-15 06:50:00,
2013-09-15 02:05:00,56.8,32.1,29.94,West,270,0.0,-999.0,39,-99.99,,,0.00,Acu-Link.com,2013-09-15 07:05:00,
2013-09-15 02:20:00,56.7,32.0,29.94,West,270,0.0,-999.0,39,-99.99,,,0.00,Acu-Link.com,2013-09-15 07:20:00,
2013-09-15 02:35:00,56.5,31.2,29.94,West,270,0.0,-999.0,38,-99.99,,,0.00,Acu-Link.com,2013-09-15 07:35:00,
2013-09-15 02:51:00,55.4,31.5,29.94,SSE,157,0.0,-999.0,40,-99.99,,,0.00,Acu-Link.com,2013-09-15 07:51:00,
2013-09-15 03:07:00,55.2,29.4,29.94,North,0,0.0,-999.0,37,-99.99,,,0.00,Acu-Link.com,2013-09-15 08:07:00,
2013-09-15 03:22:00,56.3,30.4,29.94,NW,315,0.0,-999.0,37,-99.99,,,0.00,Acu-Link.com,2013-09-15 08:22:00,
2013-09-15 03:37:00,55.8,29.9,29.95,ESE,112,0.0,-999.0,37,-99.99,,,0.00,Acu-Link.com,2013-09-15 08:37:00,
2013-09-15 03:52:00,56.1,30.2,29.94,WNW,292,0.0,-999.0,37,-99.99,,,0.00,Acu-Link.com,2013-09-15 08:52:00,
2013-09-15 04:07:00,56.1,30.2,29.94,NW,315,0.0,-999.0,37,-99.99,,,0.00,Acu-Link.com,2013-09-15 09:07:00,
2013-09-15 04:22:00,55.0,29.2,29.94,NE,45,0.0,-999.0,37,-99.99,,,0.00,Acu-Link.com,2013-09-15 09:22:00,
2013-09-15 04:38:00,54.7,28.9,29.95,SE,135,0.0,-999.0,37,-99.99,,,0.00,Acu-Link.com,2013-09-15 09:38:00,
2013-09-15 04:53:00,55.6,30.4,29.95,NW,315,0.0,-999.0,38,-99.99,,,0.00,Acu-Link.com,2013-09-15 09:53:00,
2013-09-15 05:08:00,55.4,32.1,29.95,NNW,337,0.0,-999.0,41,-99.99,,,0.00,Acu-Link.com,2013-09-15 10:08:00,
2013-09-15 05:23:00,54.7,32.1,29.95,SSW,202,0.0,-999.0,42,-99.99,,,0.00,Acu-Link.com,2013-09-15 10:23:00,
2013-09-15 05:39:00,55.2,34.2,29.96,SW,225,0.0,-999.0,45,-99.99,,,0.00,Acu-Link.com,2013-09-15 10:39:00,
2013-09-15 05:54:00,55.2,34.8,29.96,WNW,292,0.0,-999.0,46,-99.99,,,0.00,Acu-Link.com,2013-09-15 10:54:00,
2013-09-15 06:09:00,54.0,33.1,29.97,ESE,112,0.0,-999.0,45,-99.99,,,0.00,Acu-Link.com,2013-09-15 11:09:00,
2013-09-15 06:25:00,54.7,34.9,29.97,East,90,0.0,-999.0,47,-99.99,,,0.00,Acu-Link.com,2013-09-15 11:25:00,
2013-09-15 06:40:00,55.4,37.6,29.97,SSW,202,0.0,-999.0,51,-99.99,,,0.00,Acu-Link.com,2013-09-15 11:40:00,
2013-09-15 06:55:00,55.0,36.7,29.98,East,90,0.0,-999.0,50,-99.99,,,0.00,Acu-Link.com,2013-09-15 11:55:00,
2013-09-15 07:11:00,57.4,37.9,29.98,ESE,112,0.0,-999.0,48,-99.99,,,0.00,Acu-Link.com,2013-09-15 12:11:00,
2013-09-15 07:26:00,61.2,50.2,29.98,South,180,0.0,-999.0,67,-99.99,,,0.00,Acu-Link.com,2013-09-15 12:26:00,
2013-09-15 07:41:00,64.4,63.8,29.98,West,270,0.0,-999.0,98,-99.99,,,0.00,Acu-Link.com,2013-09-15 12:41:00,
2013-09-15 07:56:00,66.7,66.1,29.99,SW,225,0.0,-999.0,98,-99.99,,,0.00,Acu-Link.com,2013-09-15 12:56:00,
2013-09-15 08:12:00,68.4,66.9,29.99,NNE,22,0.0,-999.0,95,-99.99,,,0.00,Acu-Link.com,2013-09-15 13:12:00,
2013-09-15 08:27:00,73.4,67.9,29.99,West,270,0.0,-999.0,83,-99.99,,,0.00,Acu-Link.com,2013-09-15 13:27:00,
2013-09-15 08:42:00,76.3,67.8,29.99,ESE,112,4.2,-999.0,75,-99.99,,,0.00,Acu-Link.com,2013-09-15 13:42:00,
2013-09-15 08:57:00,77.2,67.9,30.00,SE,135,3.2,-999.0,73,-99.99,,,0.00,Acu-Link.com,2013-09-15 13:57:00,
2013-09-15 09:12:00,76.3,68.5,30.00,ESE,112,2.7,-999.0,77,-99.99,,,0.00,Acu-Link.com,2013-09-15 14:12:00,
2013-09-15 09:28:00,79.0,67.9,30.00,SW,225,4.2,-999.0,69,-99.99,,,0.00,Acu-Link.com,2013-09-15 14:28:00,
2013-09-15 09:43:00,82.2,68.3,30.00,ENE,67,1.1,-999.0,63,-99.99,,,0.00,Acu-Link.com,2013-09-15 14:43:00,
2013-09-15 09:58:00,82.8,68.9,30.01,ENE,67,5.8,-999.0,63,-99.99,,,0.00,Acu-Link.com,2013-09-15 14:58:00,
2013-09-15 10:13:00,84.0,70.0,30.00,West,270,0.0,-999.0,63,-99.99,,,0.00,Acu-Link.com,2013-09-15 15:13:00,
2013-09-15 10:28:00,85.6,69.6,30.00,SSE,157,5.3,-999.0,59,-99.99,,,0.00,Acu-Link.com,2013-09-15 15:28:00,
2013-09-15 10:44:00,87.4,66.4,30.01,ESE,112,5.8,-999.0,50,-99.99,,,0.00,Acu-Link.com,2013-09-15 15:44:00,
2013-09-15 10:59:00,81.3,65.6,30.01,West,270,0.0,-999.0,59,-99.99,,,0.00,Acu-Link.com,2013-09-15 15:59:00,
2013-09-15 11:14:00,89.4,65.2,30.01,ESE,112,1.7,-999.0,45,-99.99,,,0.00,Acu-Link.com,2013-09-15 16:14:00,
2013-09-15 11:29:00,86.9,63.0,30.01,SSE,157,5.3,-999.0,45,-99.99,,,0.00,Acu-Link.com,2013-09-15 16:29:00,
2013-09-15 11:44:00,84.2,61.1,30.01,WSW,247,3.2,-999.0,46,-99.99,,,0.00,Acu-Link.com,2013-09-15 16:44:00,
2013-09-15 11:59:00,83.5,62.3,30.00,West,270,2.2,-999.0,49,-99.99,,,0.00,Acu-Link.com,2013-09-15 16:59:00,
2013-09-15 12:15:00,85.8,60.7,30.00,SW,225,8.3,-999.0,43,-99.99,,,0.00,Acu-Link.com,2013-09-15 17:15:00,
2013-09-15 12:30:00,86.7,60.8,29.99,SW,225,6.8,-999.0,42,-99.99,,,0.00,Acu-Link.com,2013-09-15 17:30:00,
2013-09-15 12:45:00,88.0,60.6,30.00,ESE,112,7.3,-999.0,40,-99.99,,,0.00,Acu-Link.com,2013-09-15 17:45:00,
2013-09-15 13:00:00,85.6,59.2,29.98,SW,225,11.9,-999.0,41,-99.99,,,0.00,Acu-Link.com,2013-09-15 18:00:00,
2013-09-15 13:15:00,89.1,60.1,29.98,ESE,112,6.3,-999.0,38,-99.99,,,0.00,Acu-Link.com,2013-09-15 18:15:00,
2013-09-15 13:30:00,88.3,61.6,29.98,West,270,7.3,-999.0,41,-99.99,,,0.00,Acu-Link.com,2013-09-15 18:30:00,
2013-09-15 13:45:00,88.2,60.1,29.97,WNW,292,0.0,-999.0,39,-99.99,,,0.00,Acu-Link.com,2013-09-15 18:45:00,
2013-09-15 14:00:00,86.0,60.9,29.97,WSW,247,6.8,-999.0,43,-99.99,,,0.00,Acu-Link.com,2013-09-15 19:00:00,
2013-09-15 14:15:00,86.7,60.1,29.98,SSW,202,5.3,-999.0,41,-99.99,,,0.00,Acu-Link.com,2013-09-15 19:15:00,
2013-09-15 14:30:00,87.4,60.8,29.97,West,270,6.8,-999.0,41,-99.99,,,0.00,Acu-Link.com,2013-09-15 19:30:00,
2013-09-15 14:45:00,90.1,61.0,29.96,SW,225,2.7,-999.0,38,-99.99,,,0.00,Acu-Link.com,2013-09-15 19:45:00,
2013-09-15 15:00:00,90.9,58.6,29.95,SSW,202,10.4,-999.0,34,-99.99,,,0.00,Acu-Link.com,2013-09-15 20:00:00,
2013-09-15 15:16:00,89.1,60.1,29.94,West,270,5.3,-999.0,38,-99.99,,,0.00,Acu-Link.com,2013-09-15 20:16:00,
2013-09-15 15:31:00,90.3,61.9,29.94,SSW,202,4.7,-999.0,39,-99.99,,,0.00,Acu-Link.com,2013-09-15 20:31:00,
2013-09-15 15:46:00,91.9,62.6,29.95,West,270,1.7,-999.0,38,-99.99,,,0.00,Acu-Link.com,2013-09-15 20:46:00,
2013-09-15 16:01:00,92.7,62.6,29.95,SE,135,7.3,-999.0,37,-99.99,,,0.00,Acu-Link.com,2013-09-15 21:01:00,
2013-09-15 16:16:00,93.0,61.3,29.95,ENE,67,5.3,-999.0,35,-99.99,,,0.00,Acu-Link.com,2013-09-15 21:16:00,
2013-09-15 16:31:00,89.6,62.7,29.95,SW,225,3.2,-999.0,41,-99.99,,,0.00,Acu-Link.com,2013-09-15 21:31:00,
2013-09-15 16:46:00,90.3,61.9,29.96,WSW,247,6.3,-999.0,39,-99.99,,,0.00,Acu-Link.com,2013-09-15 21:46:00,
2013-09-15 17:01:00,91.8,63.3,29.94,East,90,2.7,-999.0,39,-99.99,,,0.00,Acu-Link.com,2013-09-15 22:01:00,
2013-09-15 17:17:00,91.6,63.1,29.94,SSW,202,2.7,-999.0,39,-99.99,,,0.00,Acu-Link.com,2013-09-15 22:17:00,
2013-09-15 17:32:00,90.7,61.6,29.94,WSW,247,2.2,-999.0,38,-99.99,,,0.00,Acu-Link.com,2013-09-15 22:32:00,
2013-09-15 17:47:00,89.6,64.8,29.95,WNW,292,1.1,-999.0,44,-99.99,,,0.00,Acu-Link.com,2013-09-15 22:47:00,
2013-09-15 18:03:00,86.0,66.3,29.95,West,270,0.0,-999.0,52,-99.99,,,0.00,Acu-Link.com,2013-09-15 23:03:00,
2013-09-15 18:18:00,86.9,66.0,29.95,NNE,22,0.0,-999.0,50,-99.99,,,0.00,Acu-Link.com,2013-09-15 23:18:00,
2013-09-15 18:33:00,85.1,66.0,29.95,WNW,292,0.0,-999.0,53,-99.99,,,0.00,Acu-Link.com,2013-09-15 23:33:00,
2013-09-15 18:48:00,81.3,65.1,29.96,ENE,67,0.0,-999.0,58,-99.99,,,0.00,Acu-Link.com,2013-09-15 23:48:00,
2013-09-15 19:03:00,78.6,64.9,29.95,ESE,112,0.0,-999.0,63,-99.99,,,0.00,Acu-Link.com,2013-09-16 00:03:00,
2013-09-15 19:18:00,75.9,66.6,29.95,NNW,337,1.7,-999.0,73,-99.99,,,0.00,Acu-Link.com,2013-09-16 00:18:00,
2013-09-15 19:34:00,74.3,67.7,29.96,WNW,292,0.0,-999.0,80,-99.99,,,0.00,Acu-Link.com,2013-09-16 00:34:00,
2013-09-15 19:49:00,72.9,66.7,29.96,WNW,292,0.0,-999.0,81,-99.99,,,0.00,Acu-Link.com,2013-09-16 00:49:00,
2013-09-15 20:05:00,73.4,66.8,29.98,WNW,292,1.7,-999.0,80,-99.99,,,0.00,Acu-Link.com,2013-09-16 01:05:00,
2013-09-15 20:20:00,72.5,67.0,29.98,West,270,2.7,-999.0,83,-99.99,,,0.00,Acu-Link.com,2013-09-16 01:20:00,
2013-09-15 20:35:00,71.6,66.5,29.98,NW,315,0.0,-999.0,84,-99.99,,,0.00,Acu-Link.com,2013-09-16 01:35:00,
2013-09-15 20:51:00,71.6,67.9,29.98,West,270,1.7,-999.0,88,-99.99,,,0.00,Acu-Link.com,2013-09-16 01:51:00,
2013-09-15 21:06:00,70.2,66.1,29.99,NE,45,0.0,-999.0,87,-99.99,,,0.00,Acu-Link.com,2013-09-16 02:06:00,
2013-09-15 21:21:00,69.8,69.2,29.99,SW,225,0.0,-999.0,98,-99.99,,,0.00,Acu-Link.com,2013-09-16 02:21:00,
2013-09-15 21:36:00,69.6,67.2,30.00,NW,315,1.7,-999.0,92,-99.99,,,0.00,Acu-Link.com,2013-09-16 02:36:00,
2013-09-15 21:51:00,69.8,69.2,30.00,West,270,1.1,-999.0,98,-99.99,,,0.00,Acu-Link.com,2013-09-16 02:51:00,
2013-09-15 22:06:00,68.2,67.6,30.00,NNW,337,0.0,-999.0,98,-99.99,,,0.00,Acu-Link.com,2013-09-16 03:06:00,
2013-09-15 22:22:00,67.1,66.5,30.01,SE,135,0.0,-999.0,98,-99.99,,,0.00,Acu-Link.com,2013-09-16 03:22:00,
2013-09-15 22:37:00,66.6,66.0,30.00,West,270,0.0,-999.0,98,-99.99,,,0.00,Acu-Link.com,2013-09-16 03:37:00,
2013-09-15 22:52:00,66.0,65.4,30.00,SE,135,0.0,-999.0,98,-99.99,,,0.00,Acu-Link.com,2013-09-16 03:52:00,
2013-09-15 23:08:00,65.7,65.1,29.99,North,0,1.7,-999.0,98,-99.99,,,0.00,Acu-Link.com,2013-09-16 04:08:00,
2013-09-15 23:23:00,65.7,65.1,30.00,WNW,292,0.0,-999.0,98,-99.99,,,0.00,Acu-Link.com,2013-09-16 04:23:00,
2013-09-15 23:38:00,65.1,60.5,30.00,ESE,112,0.0,-999.0,85,-99.99,,,0.00,Acu-Link.com,2013-09-16 04:38:00,
2013-09-15 23:53:00,65.1,58.4,30.00,West,270,0.0,-999.0,79,-99.99,,,0.00,Acu-Link.com,2013-09-16 04:53:00,